#timestamp,LO_Frequency,Hit,StdDev 
1544734815.6,286047002.4,N
1544734835.4,286047002.6,N
1544734855.2,286047000.1,N
1544734875.1,286047000.7,N
1544734876.0,286047000.7,N
1544734895.8,286047000.0,N
1544734915.7,286046999.8,N
1544734935.5,286047002.6,N
1544734955.3,286047000.2,N
1544734975.2,286047002.1,N
1544734995.0,286046999.7,N
1544734995.9,286046999.7,N
1544735015.8,286047002.3,N
1544735035.6,286047002.1,N
1544735055.4,286047001.8,N
1544735075.3,286046999.7,N
1544735095.1,286047001.3,N
1544735115.8,286047002.0,N
1544735135.7,286047002.3,N
1544735155.5,286047002.5,N
1544735175.4,286047000.0,N
1544735195.2,286046998.2,N
1544735215.0,286047000.3,N
1544735215.9,286047000.3,N
1544735235.8,286046999.7,N
1544735255.6,286046999.7,N
1544735275.5,286047002.8,N
1544735295.3,286047003.8,Y
1544735315.1,286047003.5,P
1544735335.9,286047001.8,N
1544735355.7,286047001.9,N
1544735375.5,286047001.5,N
1544735395.4,286047002.0,N
1544735415.2,286047002.0,N
1544735435.1,286047000.4,N
1544735436.0,286047000.4,N
1544735455.8,286046998.3,N
1544735475.6,286046998.8,N
1544735495.5,286046998.1,N
1544735515.3,286047000.5,N
1544735535.1,286047000.0,N
1544735555.9,286047000.3,N
1544735575.7,286047002.2,N
1544735595.6,286047002.1,N
1544735615.4,286047000.0,N
1544735635.2,286047000.5,N
1544735655.1,286046999.7,N
1544735656.0,286046999.7,N
1544735675.8,286046998.1,N
1544735695.7,286047002.0,N
1544735715.5,286047001.4,N
1544735735.3,286047004.2,N
1544735755.2,286047002.3,N
1544735775.0,286047002.1,N
1544735775.9,286047002.1,N
1544735795.7,286047000.0,N
1544735815.6,286047000.3,N
1544735835.4,286047000.4,N
1544735855.3,286047002.8,N
1544735875.1,286047001.9,N
1544735895.8,286047001.8,N
1544735915.7,286047004.2,N
1544735935.5,286047004.4,N
1544735955.4,286047001.4,N
1544735975.2,286047003.9,N
1544735995.0,286047003.7,N
1544735995.9,286047003.7,N
1544736015.8,286047004.3,N
1544736035.6,286047004.2,N
1544736055.4,286047001.3,N
1544736105.3,286047002.0,E
1544736115.2,286047000.0,N
1544736135.1,286047000.0,P
1544736136.0,286047000.0,P
1544736155.8,286046998.1,Y
1544736175.7,286046996.5,P
1544736195.5,286046996.7,N
1544736215.3,286046996.6,N
1544736235.2,286046997.5,N
1544736255.9,286046997.7,N
1544736275.7,286046997.4,N
1544736295.6,286046996.6,Y
1544736315.4,286047000.1,P
1544736335.3,286046999.7,N
1544736355.1,286047001.3,N
1544736356.0,286047001.3,N
1544736375.8,286047002.3,N
1544736395.7,286047002.2,N
1544736415.5,286047002.0,N
1544736435.3,286047002.5,N
1544736455.2,286047002.0,N
1544736475.0,286047002.6,N
1544736475.9,286047002.6,N
1544736495.8,286047002.3,N
1544736515.6,286047001.3,N
1544736535.4,286047002.2,N
1544736555.3,286047002.6,N
1544736575.1,286047002.1,N
1544736595.9,286047001.7,N
1544736615.7,286047001.7,N
1544736635.5,286047002.2,N
1544736655.4,286047002.8,N
1544736675.2,286047001.7,N
1544736695.0,286047003.1,N
1544736695.9,286047003.1,N
1544736715.8,286047003.1,N
1544736735.6,286047006.0,Y
1544736755.5,286047004.1,P
1544736775.3,286047011.9,P
1544736795.1,286047001.3,N
1544736815.9,286047002.1,N
1544736835.7,286047001.5,N
1544736855.5,286047001.8,N
1544736875.4,286047002.5,N
1544736895.2,286047000.4,N
1544736915.1,286047001.1,N
1544736916.0,286047001.1,N
1544736935.8,286046999.0,N
1544736955.6,286046998.5,N
1544736975.5,286046998.9,N
1544736995.3,286046999.0,N
1544737015.2,286046999.6,N
1544737035.9,286046999.5,N
1544737055.7,286046998.9,N
1544737075.6,286047001.1,N
1544737095.4,286046999.7,N
1544737115.3,286047002.7,N
1544737135.1,286047002.1,N
1544737136.0,286047002.1,N
1544737155.8,286047001.9,N
1544737175.7,286047001.9,N
1544737195.5,286047002.5,N
1544737215.3,286047002.6,N
1544737235.2,286047001.4,N
1544737255.0,286047001.5,N
1544737255.9,286047001.5,N
1544737275.8,286047002.0,N
1544737295.6,286047001.9,N
1544737315.4,286047004.4,N
1544737335.3,286047003.3,N
1544737355.1,286047003.8,N
1544737375.8,286047004.4,N
1544737395.7,286047001.4,N
1544737415.5,286047002.4,N
1544737435.4,286047000.0,N
1544737455.2,286047002.1,N
1544737475.0,286047001.4,N
1544737476.0,286047001.4,N
1544737495.8,286047001.7,N
1544737515.6,286047001.5,N
1544737535.5,286047002.1,N
1544737555.3,286047000.3,N
1544737575.1,286047002.2,N
1544737595.9,286047001.7,N
1544737615.7,286047001.8,N
1544737635.6,286047001.4,N
1544737655.4,286047002.4,N
1544737675.2,286047001.9,N
1544737695.1,286047004.3,Y
1544737696.0,286047004.3,P
1544737715.8,286047000.5,N
1544737735.7,286047000.9,N
1544737755.5,286046998.4,N
1544737775.3,286047000.9,N
1544737795.2,286046998.2,N
1544737815.9,286047001.0,N
1544737835.7,286046999.2,N
1544737855.6,286046997.3,N
1544737875.4,286046998.9,N
1544737895.3,286047001.2,N
1544737915.1,286046999.9,N
1544737916.0,286046999.9,N
1544737935.8,286047001.1,N
1544737955.7,286046998.7,N
1544737975.3,286046999.6,N
1544737995.1,286046999.1,N
1544738015.8,286046998.7,N
1544738035.7,286047000.9,N
1544738055.5,286047000.6,N
1544738075.4,286047000.4,N
1544738095.2,286047000.2,N
1544738115.0,286047001.5,N
1544738116.0,286047001.5,N
1544738135.8,286047001.9,N
1544738155.6,286047000.2,N
1544738175.5,286046999.0,N
1544738195.3,286047000.5,N
1544738215.9,286047001.0,N
1544738235.7,286046998.2,N
1544738255.5,286047000.6,N
1544738275.4,286047000.8,N
1544738295.2,286046998.2,N
1544738315.0,286047000.4,N
1544738316.0,286047000.4,N
1544738335.8,286046998.4,N
1544738355.6,286046998.7,N
1544738375.5,286046999.5,N
1544738395.3,286046999.4,N
